Regional Weather Roundup
Issued by NWS

Home | Current Version | Previous Version | Graphics & Text | Print | Product List | Glossary On
Versions: 1 2 3 4 5 6 7 8 9 10 11 12 13 14 15 16 17 18 19 20 21 22 23 24 25 26 27
000
ASUS45 KSLC 240010
RWRUT

UTAH REGIONAL WEATHER ROUNDUP
NATIONAL WEATHER SERVICE SALT LAKE CITY UT
500 PM MST THU NOV 23 2017

UTZ001>011-023>025-240100-

NORTHERN UTAH

CITY           SKY/WX    TMP DP  RH WIND       PRES   REMARKS
BRIGHAM CITY   CLOUDY    54  44  68 CALM      30.12F
HILL AFB       CLOUDY    57  42  58 NE3       30.12F
LOGAN          CLOUDY    53  43  68 NW8       30.10F
OGDEN          CLOUDY    56  44  64 NE3       30.11F
SALT LAKE CITY MOCLDY    54  45  71 SW3       30.11F
TOOELE VALLEY  MOCLDY    52  43  71 CALM      30.14S
WENDOVER       MOCLDY    51  41  68 SW3       30.12F
HEBER CITY       N/A     55  32  41 CALM      30.16S
WEST JORDAN    MOCLDY    54  44  68 N5        30.13F

$$

UTZ011>015-024>027-240100-

CENTRAL/NORTHEAST UTAH

CITY           SKY/WX    TMP DP  RH WIND       PRES   REMARKS
PROVO AIRPORT  MOCLDY    54  39  57 NW7       30.15S
MOAB/CANYONLAN MOCLDY    56  31  38 NW7       30.16F
DELTA          CLEAR     59  34  38 N3        30.14F
PRICE          CLEAR     53  31  42 E5        30.22F
RICHFIELD      CLEAR     54  36  50 CALM      30.18F
ROOSEVELT      CLEAR     54  32  43 CALM      30.19S
VERNAL         CLEAR     52  34  50 CALM      30.16F

$$

UTZ013>016-019>022-027-240100-

SOUTHERN UTAH

CITY           SKY/WX    TMP DP  RH WIND       PRES   REMARKS
BRYCE CANYON   PTCLDY    58  18  21 W3        30.30F
CEDAR CITY     PTCLDY    62  31  31 SW7       30.18F
MILFORD        MOCLDY    66  32  28 SW12      30.13F
ST GEORGE      PTCLDY    68  34  28 CALM      30.09F
HANKSVILLE     MOCLDY    59  27  29 CALM      30.20S
KANAB          CLEAR     64  30  27 CALM      30.21F
BLANDING         N/A     55  31  39 SW5       30.30F

$$

REGIONAL REPORTS     COLORADO/ARIZONA

CITY           SKY/WX    TMP DP  RH WIND       PRES   REMARKS
CRAIG, CO      CLOUDY    49  33  54 S5        30.18F
GRAND JUNCTION CLOUDY    54  35  48 NW3       30.19F
RIFLE, CO      CLOUDY    49  37  63 SW6       30.22S
MONTROSE, CO   CLOUDY    54  34  46 N5        30.23F
CORTEZ, CO     CLEAR     54  32  43 W3        30.23F
COLORADO CITY    N/A     70  32  24 CALM      30.20F
PAGE, AZ       PTCLDY    58  32  37 CALM      30.16F
GRAND CANYON   CLEAR     64  21  19 NW3       30.27F
KINGMAN, AZ    CLEAR     78  31  17 N6        30.09S
FLAGSTAFF, AZ  CLEAR     60  30  32 NE5       30.29S

$$

REGIONAL REPORTS    NEVADA/IDAHO/WYOMING

CITY           SKY/WX    TMP DP  RH WIND       PRES   REMARKS
LAS VEGAS, NV  PTCLDY    78  38  23 CALM      30.03F
ELY, NY        PTCLDY    61  25  25 W3        30.20S
ELKO, NV       CLOUDY    59  42  53 CALM      30.11F
POCATELLO, ID  CLOUDY    59  40  49 S16       30.02F
BURLEY, ID     LGT RAIN  59  45  59 W7G18     30.04R
FORT BRIDGER,    N/A     54  35  47 W18G25    30.19F
EVANSTON, WY   CLOUDY    51  34  52 SW10      30.21F
ROCK SPRINGS,  CLEAR     53  34  48 W21       30.14F
KEMMERER, WY   CLOUDY    46  34  61 W16G23    30.17F

$$




USA.gov is the U.S. government's official web portal to all federal, state and local government web resources and services.